DW7229 Weather Reports


time (UTC)temp
F
wind
direction
speed
knots
gust
knots
rain 1hr
in
rain 24hr
in
rain mn
in
humidity
%
barometer
mb
20260505183515 85 228 6.1 13.0 0.00 0.00 0.00 29 1005.5
20260505182518 84 240 5.2 9.6 0.00 0.00 0.00 30 1005.7
20260505181521 85 207 6.1 13.0 0.00 0.00 0.00 30 1005.7
20260505180525 84 269 4.3 9.6 0.00 0.00 0.00 31 1005.7
20260505175528 85 189 1.7 7.8 0.00 0.00 0.00 31 1006.0
20260505174531 84 233 6.1 11.3 0.00 0.00 0.00 31 1006.1
20260505173517 84 211 4.3 14.8 0.00 0.00 0.00 32 1006.4
20260505172520 83 246 4.3 9.6 0.00 0.00 0.00 33 1006.4
20260505171523 84 196 1.7 9.6 0.00 0.00 0.00 34 1006.7
20260505170527 82 173 1.7 9.6 0.00 0.00 0.00 34 1006.9
20260505165530 82 204 2.6 7.0 0.00 0.00 0.00 35 1007.0
20260505164515 81 230 4.3 7.0 0.00 0.00 0.00 36 1007.2
20260505163518 80 197 2.6 6.1 0.00 0.00 0.00 36 1007.2
20260505162522 81 270 0.0 3.5 0.00 0.00 0.00 37 1007.8
20260505161525 80 135 0.0 1.7 0.00 0.00 0.00 38 1007.9
20260505160548 79 211 1.7 3.5 0.00 0.00 0.00 39 1008.1
20260505152523 76 215 1.7 5.2 0.00 0.00 0.00 41 1008.6
20260505151521 75 242 1.7 7.0 0.00 0.00 0.00 42 1008.6
20260505150518 73 231 1.7 4.3 0.00 0.00 0.00 44 1008.7
20260505140532 68 181 1.7 7.8 0.00 0.00 0.00 50 1008.7
20260505124602 60 191 0.9 2.6 0.00 0.00 0.00 58 1009.0
20260505123525 60 236 1.7 4.3 0.00 0.00 0.00 58 1009.0
20260505122529 60 225 0.9 4.3 0.00 0.00 0.00 59 1009.2
20260505121552 60 192 1.7 7.0 0.00 0.00 0.00 59 1009.0
20260505120517 60 257 1.7 3.5 0.00 0.00 0.00 59 1008.8
20260505115520 60 261 1.7 5.2 0.00 0.00 0.00 59 1008.8
20260505114524 58 232 1.7 4.3 0.00 0.00 0.00 61 1008.7
20260505113521 57 237 2.6 5.2 0.00 0.00 0.00 62 1008.8
20260505112518 57 248 1.7 4.3 0.00 0.00 0.00 62 1008.8
20260505111536 57 184 2.6 6.1 0.00 0.00 0.00 62 1008.8
20260505110518 56 245 1.7 5.2 0.00 0.00 0.00 63 1008.8
20260505101517 54 225 0.9 2.6 0.00 0.00 0.00 64 1008.8
20260505100540 54 207 0.9 4.3 0.00 0.00 0.00 64 1008.7
20260505095544 53 225 0.9 3.5 0.00 0.00 0.00 64 1008.7
20260505094527 53 178 0.9 4.3 0.00 0.00 0.00 64 1008.8
20260505093531 53 0.0 2.6 0.00 0.00 0.00 64 1008.8
20260505092516 52 195 0.0 1.7 0.00 0.00 0.00 65 1008.8
20260505091519 52 0.0 0.0 0.00 0.00 0.00 65 1008.8
20260505090522 52 0.0 0.0 0.00 0.00 0.00 65 1008.8
20260505085526 52 0.0 0.0 0.00 0.00 0.00 64 1008.9
20260505084529 53 0.0 0.0 0.00 0.00 0.00 63 1009.0
20260505083553 53 0.0 0.9 0.00 0.00 0.00 63 1009.0
20260505082518 53 270 0.0 0.9 0.00 0.00 0.00 62 1009.0
20260505081541 53 0.0 0.0 0.00 0.00 0.00 62 1009.1
20260505080524 53 0.0 0.0 0.00 0.00 0.00 62 1009.2
20260505075542 53 0.0 0.0 0.00 0.00 0.00 62 1009.3
20260505074519 53 0.0 0.0 0.00 0.00 0.00 61 1009.1
20260505073516 53 0.0 0.0 0.00 0.00 0.00 61 1009.2
20260505072519 53 0.0 0.0 0.00 0.00 0.00 61 1009.2
20260505071523 53 101 0.0 1.7 0.00 0.00 0.00 61 1009.2
20260505070526 53 158 0.0 1.7 0.00 0.00 0.00 61 1009.2
20260505065549 53 214 0.0 2.6 0.00 0.00 0.00 61 1009.3